EW6239 Weather Reports


Display with metric or nautical units.
time (UTC)temp
F
wind
direction
speed
MPH
gust
MPH
rain 1hr
in
rain 24hr
in
rain mn
in
humidity
%
barometer
mb
20260504034518 51 0.0 2.0 0.00 0.00 0.00 59 999.7
20260504033538 51 0.0 1.0 0.00 0.00 0.00 59 999.7
20260504032538 51 0.0 1.0 0.00 0.00 0.00 58 999.7
20260504031518 51 0.0 1.0 0.00 0.00 0.00 58 999.8
20260504030518 51 0.0 2.0 0.00 0.00 0.00 57 999.9
20260504025518 51 203 1.0 5.0 0.00 0.00 0.00 56 1000.0
20260504024518 52 0.0 2.0 0.00 0.00 0.00 55 1000.1
20260504023518 52 0.0 3.0 0.00 0.00 0.00 54 1000.1
20260504022518 52 0.0 2.0 0.00 0.00 0.00 53 1000.1
20260504021538 52 0.0 2.0 0.00 0.00 0.00 51 1000.2
20260504020518 52 0.0 1.0 0.00 0.00 0.00 49 1000.2
20260504015518 52 0.0 2.0 0.00 0.00 0.00 48 1000.1
20260504014518 52 0.0 1.0 0.00 0.00 0.00 46 999.9
20260504013518 52 0.0 1.0 0.00 0.00 0.00 47 999.9
20260504012518 53 0.0 1.0 0.00 0.00 0.00 45 999.9
20260504011518 53 0.0 0.0 0.00 0.00 0.00 45 1000.0
20260504010518 53 0.0 1.0 0.00 0.00 0.00 44 999.8
20260504005518 53 0.0 0.0 0.00 0.00 0.00 43 999.7
20260504004518 53 203 1.0 4.0 0.00 0.00 0.00 43 999.8
20260504003518 54 135 1.0 3.0 0.00 0.00 0.00 42 999.7
20260504002537 54 113 1.0 3.0 0.00 0.00 0.00 41 999.6
20260504001518 54 0.0 2.0 0.00 0.00 0.00 39 999.5
20260504000538 55 0.0 2.0 0.00 0.00 0.00 37 999.4
20260503235538 55 90 1.0 3.0 0.00 0.00 0.00 36 999.4
20260503234518 56 113 1.0 3.0 0.00 0.00 0.00 36 999.5
20260503233518 56 68 1.0 3.0 0.00 0.00 0.00 36 999.5
20260503232517 56 0.0 1.0 0.00 0.00 0.00 35 999.3
20260503231518 56 0.0 1.0 0.00 0.00 0.00 35 999.2
20260503230538 57 45 1.0 4.0 0.00 0.00 0.00 33 999.2
20260503225558 57 0.0 1.0 0.00 0.00 0.00 32 999.2
20260503224517 57 0.0 1.0 0.00 0.00 0.00 31 999.2
20260503223517 57 23 1.0 4.0 0.00 0.00 0.00 28 999.2
20260503222517 58 23 1.0 3.0 0.00 0.00 0.00 27 999.3
20260503221517 58 0.0 2.0 0.00 0.00 0.00 27 999.3
20260503220639 59 45 1.0 4.0 0.00 0.00 0.00 26 999.4
20260503215517 58 0.0 2.0 0.00 0.00 0.00 29 999.3
20260503214517 58 68 1.0 3.0 0.00 0.00 0.00 29 999.4
20260503213517 58 45 1.0 3.0 0.00 0.00 0.00 27 999.5
20260503212517 59 23 1.0 3.0 0.00 0.00 0.00 27 999.5
20260503211517 59 0.0 3.0 0.00 0.00 0.00 28 999.5
20260503210517 59 23 1.0 2.0 0.00 0.00 0.00 29 999.5
20260503205517 58 23 1.0 5.0 0.00 0.00 0.00 27 999.6
20260503204517 59 68 1.0 4.0 0.00 0.00 0.00 28 999.7
20260503203517 58 338 2.0 7.0 0.00 0.00 0.00 27 999.8
20260503202517 59 23 2.0 5.0 0.00 0.00 0.00 26 1000.0
20260503201517 59 0 1.0 4.0 0.00 0.00 0.00 27 999.9
20260503200517 58 0.0 2.0 0.00 0.00 0.00 29 1000.0
20260503195517 59 248 1.0 7.0 0.00 0.00 0.00 30 1000.2
20260503194517 59 0.0 2.0 0.00 0.00 0.00 30 1000.4
20260503193517 60 158 1.0 5.0 0.00 0.00 0.00 27 1000.7
20260503192537 59 23 1.0 4.0 0.00 0.00 0.00 27 1000.7
20260503191517 59 203 1.0 4.0 0.00 0.00 0.00 31 1000.9
20260503190517 57 158 1.0 5.0 0.00 0.00 0.00 29 1000.9
20260503185517 58 225 2.0 7.0 0.00 0.00 0.00 32 1001.1
20260503184517 57 135 1.0 3.0 0.00 0.00 0.00 30 1001.3
20260503183517 57 23 1.0 5.0 0.00 0.00 0.00 30 1001.3
20260503182517 58 23 1.0 3.0 0.00 0.00 0.00 32 1001.5
20260503181517 58 158 1.0 4.0 0.00 0.00 0.00 32 1001.6
20260503180517 57 23 3.0 10.0 0.00 0.00 0.00 29 1001.7
20260503175517 57 45 1.0 6.0 0.00 0.00 0.00 33 1002.0
20260503174517 58 90 1.0 3.0 0.00 0.00 0.00 32 1002.0
20260503173517 57 180 1.0 7.0 0.00 0.00 0.00 36 1002.2
20260503172517 58 203 2.0 5.0 0.00 0.00 0.00 32 1002.2
20260503171517 57 180 2.0 6.0 0.00 0.00 0.00 33 1002.5
20260503170517 56 158 1.0 2.0 0.00 0.00 0.00 34 1002.6
20260503150517 54 23 1.0 4.0 0.00 0.00 0.00 46 1004.2
20260503130516 47 0.0 3.0 0.00 0.00 0.00 52 1005.3
20260503110516 40 0.0 3.0 0.00 0.00 0.00 70 1005.1
20260503081518 40 0.0 0.0 0.00 0.00 0.00 68 1005.2
20260503080518 40 0.0 0.0 0.00 0.00 0.00 67 1005.2
20260503072518 41 0.0 1.0 0.00 0.00 0.00 65 1005.2
20260503071518 41 0.0 0.0 0.00 0.00 0.00 65 1005.3
20260503070518 40 0.0 3.0 0.00 0.00 0.00 66 1005.3
20260503054518 42 0.0 1.0 0.00 0.00 0.00 62 1005.6
20260503053518 42 0.0 1.0 0.00 0.00 0.00 62 1005.6
20260503052518 42 0.0 3.0 0.00 0.00 0.00 62 1005.7
20260503051518 42 0.0 1.0 0.00 0.00 0.00 62 1005.8
20260503050538 42 0.0 1.0 0.00 0.00 0.00 62 1005.8
20260503045517 42 0.0 2.0 0.00 0.00 0.00 62 1005.9
20260503044517 42 0.0 1.0 0.00 0.00 0.00 62 1005.9
20260503043518 42 0.0 0.0 0.00 0.00 0.00 61 1006.0
20260503042517 42 23 1.0 3.0 0.00 0.00 0.00 61 1006.0
20260503041518 42 0.0 2.0 0.00 0.00 0.00 60 1006.1
20260503040517 42 0.0 2.0 0.00 0.00 0.00 61 1006.0
20260503035516 42 0.0 0.0 0.00 0.00 0.00 62 1006.1